Location: Unspecified
(40.7945°N, 111.1337°W)
Time: 16:27:25
(UTC-06:00)

Cosmos 2058 - Visible Passes

Search period start: 25 June 2017 00:00
Search period end: 05 July 2017 00:00
Orbit: 565 x 584 km, 82.5° (Epoch: 25 June)

Date Brightness Start Highest point End Pass type
(mag) Time Alt. Az. Time Alt. Az. Time Alt. Az.
25 Jun 4.8 22:18:05 13° ESE 22:19:07 14° E 22:21:19 10° NE visible
25 Jun 3.9 23:54:17 32° WSW 23:55:37 43° WNW 23:59:39 10° N visible
26 Jun 4.5 22:21:05 16° ESE 22:22:22 19° E 22:25:17 10° NE visible
26 Jun 4.4 23:57:17 23° WSW 23:59:02 32° WNW 00:02:50 10° NNW visible
27 Jun 4.2 22:24:04 20° ESE 22:25:38 24° E 22:29:03 10° NE visible
28 Jun 4.9 00:00:15 16° WSW 00:02:28 25° WNW 00:05:57 10° NNW visible
28 Jun 3.8 22:26:59 22° SE 22:28:54 32° E 22:32:41 10° NNE visible
29 Jun 5.3 00:03:10 11° WSW 00:05:55 19° WNW 00:08:57 10° NNW visible
29 Jun 3.4 22:29:52 22° SSE 22:32:13 43° E 22:36:13 10° NNE visible
30 Jun 5.6 00:07:03 10° WSW 00:09:24 15° WNW 00:11:46 10° NW visible
30 Jun 3.0 22:32:43 19° S 22:35:33 60° E 22:39:42 10° NNE visible
01 Jul 5.8 00:11:44 10° W 00:12:54 11° WNW 00:14:04 10° NW visible
01 Jul 2.8 22:35:31 15° S 22:38:52 82° E 22:43:06 10° N visible
02 Jul 3.1 22:38:15 11° SSW 22:42:15 74° W 22:46:28 10° N visible
03 Jul 3.6 22:41:31 10° SSW 22:45:37 54° W 22:49:46 10° N visible
04 Jul 4.2 22:45:05 10° SSW 22:49:01 40° WNW 22:53:00 10° N visible
